Find Starlink 32497

NORAD ID: 62161 Int'l Des: 2024-224 Owner: SPXS Country: US Constellation: starlink operational
LEOCIRCULAR

当前视图

正在加载3D地球...

About Starlink 32497

Starlink 32497 (NORAD 62161) is a starlink constellation satellite (v2 mini) launched Nov 30, 2024 by SPXS of US. It operates in LEO, CIRCULAR orbit with a mass of 730.00 kg.

关于 Starlink 32497

正在加载描述...

即将过境

Passes for default location (London). Set your location on the main map for personalized predictions.

高度历史

Loading altitude history...

两行轨道根数

1 62161U 24224Y 26194.31344266 .00011365 00000-0 42172-3 0 9996
2 62161 43.0016 172.0150 0001528 288.5264 71.5421 15.27593553 91644
Epoch: Jul 13, 2026 • Age: 20 hours

当前状态

高度 481.8 km
远地点 / 近地点 N/A
速度 7.63 km/s
星下点 10.56°N, 173.23°W
发射日期 Nov 30, 2024
运行时间 1.6 years
类型 internet

技术详情

分类 Payload
质量 730.00 kg
干质量 700.00 kg
总质量 730.00 kg
长度 0.30 m
直径 4.10 m
跨度 29.00 m
形状 Box + pan
制造商 SPXS
平台类型 Starlink V2M
阶段状态 In Orbit
所有者/国家 SPXS/US

Most Searched